Lid_Strength_Index
13 13 12 12 12 12 12 13 13 14 14 14 14 14 14 15 15 15 15 15 16 15 15 16 16 16 16 16 16 16 16 16
13 12 12 12 12 12 12 12 13 13 13 14 14 14 14 15 15 15 15 16 16 16 16 16 16 16 16 16 16 17 17 17
13 12 11 12 12 12 12 12 13 13 13 13 14 14 15 15 15 15 15 15 15 16 16 16 16 16 17 17 17 17 18 18
12 12 11 12 12 12 12 13 13 13 14 14 14 14 14 14 14 15 15 15 15 16 16 16 16 16 16 16 17 17 17 17
13 12 11 12 12 11 12 12 13 13 14 14 14 14 13 13 14 15 15 15 15 16 16 16 16 16 16 17 17 17 17 17
12 13 12 12 12 12 12 12 12 14 14 14 14 14 14 14 14 14 15 15 15 15 16 16 16 16 16 17 16 17 17 17
11 13 13 13 14 13 14 13 13 13 14 14 14 15 15 14 14 14 14 14 14 15 16 16 16 14 14 16 16 17 17 18
11 13 13 13 13 14 14 14 15 14 14 14 14 15 15 15 16 16 15 14 15 15 16 16 16 13 13 14 16 17 17 18
11 13 13 12 13 13 14 16 16 15 15 15 15 16 15 15 15 15 15 15 15 15 15 16 16 14 13 13 16 17 17 18
11 12 12 13 13 13 13 15 15 15 15 16 17 17 15 16 16 15 15 15 15 15 15 16 15 14 13 12 15 17 17 18
11 12 12 12 12 13 13 15 15 15 15 16 17 17 16 16 16 15 16 16 15 16 15 15 15 13 12 12 13 16 17 18
12 13 13 13 13 13 14 15 14 15 15 16 17 17 17 16 15 16 16 16 17 17 16 16 16 15 13 12 13 16 17 18
12 13 12 12 13 14 15 14 15 16 17 17 18 18 17 17 16 15 16 17 17 17 17 17 16 15 14 12 10 14 17 18
13 13 13 13 13 15 15 15 16 18 18 18 18 19 18 19 18 16 14 16 16 17 17 17 17 16 14 13 11 14 17 17
13 14 15 14 14 14 15 15 18 19 20 20 20 20 20 19 18 17 15 15 16 16 17 17 18 18 17 15 13 14 15 16
15 15 16 15 16 16 17 18 19 20 20 21 21 21 21 20 19 17 15 14 15 16 16 17 18 18 16 16 14 15 16 18
17 18 18 19 19 19 19 20 21 22 22 22 22 22 22 22 21 17 15 13 11 12 13 15 14 14 14 13 12 13 15 18
20 20 21 22 23 22 22 22 23 24 23 23 23 23 23 22 22 22 18 13 11 11 12 12 13 13 12 12 12 12 14 19
22 23 23 24 24 23 23 24 24 25 24 24 24 24 23 22 22 21 20 19 16 13 12 12 12 12 12 12 12 14 15 18
22 24 25 26 27 25 25 25 25 25 25 25 24 24 23 22 22 20 20 19 16 15 14 13 10 10 12 11 14 14 16 18